This is the latest recevied weather packets stored in our database for station/object KC5DAQ-26. If no packets are shown the sender has not sent any weather packets the latest 10 day(s).
| Time | Temp. | Humidity | Pressure | Rain* | Wind** | Luminosity | Snow |
|---|---|---|---|---|---|---|---|
| 1787769651 | 35° C | 60% | 1018.7 hPa | 0 mm | - | 927 W/m² | - |
| 1787769593 | 35° C | 61% | 1018.7 hPa | 0 mm | - | 928 W/m² | - |
| 1787769531 | 35° C | 61% | 1018.8 hPa | 0 mm | - | 928 W/m² | - |
| 1787769473 | 35° C | 61% | 1018.7 hPa | 0 mm | - | 928 W/m² | - |
| 1787769411 | 35° C | 61% | 1018.7 hPa | 0 mm | - | 927 W/m² | - |
| 1787769352 | 35° C | 60% | 1018.8 hPa | 0 mm | - | 927 W/m² | - |
| 1787769290 | 35° C | 61% | 1018.8 hPa | 0 mm | - | 925 W/m² | - |
| 1787769232 | 35° C | 61% | 1018.8 hPa | 0 mm | - | 925 W/m² | - |
| 1787769174 | 35° C | 61% | 1018.8 hPa | 0 mm | - | 923 W/m² | - |
| 1787769110 | 35° C | 61% | 1018.8 hPa | 0 mm | - | 928 W/m² | - |
| 1787769050 | 35° C | 62% | 1018.8 hPa | 0 mm | - | 928 W/m² | - |
| 1787768991 | 35° C | 61% | 1018.9 hPa | 0 mm | - | 932 W/m² | - |
| 1787768931 | 35° C | 61% | 1018.9 hPa | 0 mm | - | 928 W/m² | - |
| 1787768870 | 35° C | 62% | 1018.9 hPa | 0 mm | - | 928 W/m² | - |
| 1787768811 | 35° C | 62% | 1018.8 hPa | 0 mm | - | 928 W/m² | - |
| 1787768751 | 35° C | 61% | 1018.9 hPa | 0 mm | - | 928 W/m² | - |
| 1787768691 | 35° C | 61% | 1018.9 hPa | 0 mm | - | 925 W/m² | - |
| 1787768632 | 35° C | 63% | 1018.9 hPa | 0 mm | - | 923 W/m² | - |
| 1787768570 | 35° C | 61% | 1018.9 hPa | 0 mm | - | 934 W/m² | - |
| 1787768513 | 35° C | 62% | 1018.9 hPa | 0 mm | - | 928 W/m² | - |
| 1787768450 | 35° C | 63% | 1019 hPa | 0 mm | - | 930 W/m² | - |
| 1787768390 | 35° C | 63% | 1019 hPa | 0 mm | - | 925 W/m² | - |
| 1787768331 | 35° C | 60% | 1019.1 hPa | 0 mm | - | 927 W/m² | - |
| 1787768272 | 35° C | 63% | 1019.1 hPa | 0 mm | - | 930 W/m² | - |
| 1787768210 | 34.44° C | 63% | 1019 hPa | 0 mm | - | 927 W/m² | - |
* Rain latest hour (hover to see other rain measurements)
** Current wind speed in m/s (hover to see current wind gust speed)